Regional Weather Roundup
Issued by NWS

Home | Current Version | Previous Version | Text Only | Print | Product List | Glossary Off
Versions: 1 2 3 4 5 6 7 8 9 10 11 12 13 14 15 16 17 18 19 20 21 22 23 24 25 26 27 28 29

000
ASUS45 KBOI 251610
RWRID
WEATHER ROUNDUP FOR IDAHO
NATIONAL WEATHER SERVICE BOISE ID
1000 AM MDT SAT OCT 25 2014

NOTE: "FAIR" INDICATES FEW OR NO CLOUDS BELOW 12000 FEET
WITH NO SIGNIFICANT WEATHER AND/OR OBSTRUCTIONS TO VISIBILITY

IDZ012-014-251700-
SOUTHWEST IDAHO


CITY           SKY/WX    TMP DP  RH WIND       PRES   REMARKS
BOISE          CLOUDY    47  44  90 CALM      29.83S
CALDWELL       CLOUDY    45  37  76 CALM      29.86S VSB 1/2
MOUNTAIN HOME  PTSUNNY   58  36  44 SE17      29.87S
$$

IDZ016-017-251700-
SOUTHCENTRAL IDAHO


CITY           SKY/WX    TMP DP  RH WIND       PRES   REMARKS
BURLEY         SUNNY     65  34  31 SW17G23   29.96S
JEROME         SUNNY     62  31  31 E6        29.96R
TWIN FALLS     SUNNY     67  30  25 S9        29.96R
$$

IDZ019>023-251700-
SOUTHEAST IDAHO


CITY           SKY/WX    TMP DP  RH WIND       PRES   REMARKS
IDAHO FALLS    SUNNY     46  33  60 N5        30.05S
POCATELLO      SUNNY     68  30  24 S18G26    30.00F
REXBURG        SUNNY     44  31  60 E7        30.06S
$$

IDZ006-010-011-018-031-032-251700-
CENTRAL IDAHO MOUNTAINS


CITY           SKY/WX    TMP DP  RH WIND       PRES   REMARKS
MCCALL         FOG       34  34 100 CALM      29.89S VSB 1/2
HAILEY         MOSUNNY   45  30  57 NW10      30.06S
STANLEY          N/A     31  28  89 CALM      30.03F
SALMON         CLOUDY    41  37  87 SW7       29.99F
CHALLIS        SUNNY     36  33  89 CALM      30.01S
$$

IDZ002-004-006-007-026-251700-
NORTHERN IDAHO


CITY           SKY/WX    TMP DP  RH WIND       PRES   REMARKS
LEWISTON       CLOUDY    50  46  86 E9        29.69F
LOWELL           N/A     46  44  93 CALM      29.83F
COEUR D`ALENE  CLOUDY    46  39  76 NE13      29.71F
MULLAN PASS    FOG       36  36 100 S14       29.83F VSB<1/4 WCI  27
$$



USA.gov is the U.S. government's official web portal to all federal, state and local government web resources and services.